Starlink 31451

operational
NORAD ID: 59366 Int'l Des: 2024-060 Owner: SPXS Country: US Constellation: starlink
LEOCIRCULAR

About Starlink 31451

Description loading...

Live Position

Loading 3D Globe...

Upcoming Passes

Altitude History

Altitude vs Time

uPlot chart will show altitude changes over time

Two-Line Element Set

1 59366U 24060U 25312.76995972 -.00000169 00000-0 33888-5 0 9990
2 59366 42.9999 222.4071 0001081 283.8035 76.2696 15.27555417 91570
Epoch: Nov 8, 2025 • Age: 41 hours

Current Status

Altitude 484.3 km
Velocity 7.62 km/s
Sub-Earth Point -10.14°S, 16.29°W
Launch Date Mar 31, 2024
Age 1.6 years
Type internet

Technical Details

Classification Payload
Mass 730.00 kg
Dry Mass 700.00 kg
Total Mass 730.00 kg
Length 0.30 m
Diameter 4.10 m
Span 29.00 m
Shape Box + pan
Manufacturer SPXS
Bus Type Starlink V2M
Phase Status In Orbit
Owner/State SPXS/US

Large Constellations

Loading constellations...